This demonstration page uses our WeatherBlox Daily Observations layout. Learn more.

Left ArrowRight Arrow

Hourly Observations for April 12, 2020

Temp ( °F °C ) Dew Point ( °F °C ) Humidity (%) Winds ( mph kmh ) Pressure ( in mb ) Visibility ( mi km ) Precip ( " mm )
12:51 am 00:51 Clear 47 8.3 38 3.3 71 71 NW 9 15 29.81 1009 10 16.0934 0 0
1:51 am 01:51 Clear 45 7.2 38 3.3 77 77 NW 8 13 29.81 1009 10 16.0934 0 0
2:51 am 02:51 Clear 46 7.8 38 3.3 73 73 NW 12 19 29.8 1009 10 16.0934 0 0
3:51 am 03:51 Mostly Cloudy 47 8.3 39 3.9 74 74 NW 10 17 29.84 1011 10 16.0934 0 0
4:51 am 04:51 Cloudy 49 9.4 39 3.9 69 69 NNW 9 15 29.85 1011 10 16.0934 0 0
5:51 am 05:51 Cloudy 50 10 40 4.4 68 68 NW 14 22 29.86 1011 10 16.0934 0 0
6:51 am 06:51 Cloudy 51 10.6 40 4.4 66 66 NW 12 19 29.89 1012 10 16.0934 0 0
7:51 am 07:51 Cloudy 53 11.7 41 5 64 64 NW 16 26 29.91 1013 10 16.0934 0 0
8:51 am 08:51 Cloudy 55 12.8 41 5 59 59 NW 17 28 29.92 1013 10 16.0934 0 0
9:51 am 09:51 Cloudy 59 15 42 5.6 54 54 NW 16 26 29.92 1013 10 16.0934 0 0
10:51 am 10:51 Sunny 62 16.7 42 5.6 48 48 WNW 21 33 29.93 1014 10 16.0934 0 0
11:51 am 11:51 Mostly Sunny 64 17.8 41 5 43 43 NW 22 35 29.91 1013 10 16.0934 0 0
12:51 pm 12:51 Mostly Sunny 67 19.4 42 5.6 41 41 WNW 23 37 29.9 1012 10 16.0934 0 0
1:51 pm 13:51 Sunny 69 20.6 42 5.6 38 38 NW 23 37 29.88 1012 10 16.0934 0 0
2:51 pm 14:51 Sunny 69 20.6 40 4.4 35 35 NW 13 20 29.85 1011 10 16.0934 0 0
3:51 pm 15:51 Mostly Sunny 71 21.7 38 3.3 30 30 WNW 18 30 29.83 1010 10 16.0934 0 0
4:51 pm 16:51 Sunny 70 21.1 40 4.4 34 34 NW 18 30 29.82 1010 10 16.0934 0 0
5:51 pm 17:51 Sunny 68 20 40 4.4 36 36 NW 23 37 29.82 1010 10 16.0934 0 0
6:51 pm 18:51 Clear 65 18.3 39 3.9 39 39 NW 16 26 29.83 1010 10 16.0934 0 0
7:51 pm 19:51 Clear 63 17.2 39 3.9 41 41 NW 13 20 29.85 1011 10 16.0934 0 0
8:51 pm 20:51 Clear 62 16.7 39 3.9 43 43 NNW 13 20 29.87 1011 10 16.0934 0 0
9:51 pm 21:51 Clear 61 16.1 38 3.3 43 43 NNW 13 20 29.87 1012 10 16.0934 0 0
10:51 pm 22:51 Clear 60 15.6 38 3.3 44 44 NNW 10 17 29.88 1012 10 16.0934 0 0
11:51 pm 23:51 Clear 56 13.3 39 3.9 53 53 NNW 9 15 29.88 1012 10 16.0934 0 0

Powered by AerisWeather